Burnsville, North Carolina, United States (28714)
Lat: 35.92N, Lon: 82.3W
Wx Zone: NCZ049
Local Info
Past Weather Observations for Thursday, February 26, 2015

NOTE: This archive is for the closest National Weather Service station to Burnsville. Information may differ from the station used for current weather conditions.

Click here for Long-term Archive

Time Weather Temperature Dewpoint Humidity Pressure Winds Precip Visibility
23:54
Clear
30°F / -1°C 23°F / -5°C 75% 30.12 in
(1020 mb)
NNW 9.2 mph
(NNW 15 kph)
- 10SM
22:54
Clear
30°F / -1°C 25°F / -4°C 80% 30.09 in
(1019 mb)
NW 9.2 mph
(NW 15 kph)
- 10SM
22:32
Partly Cloudy
30°F / -1°C 25°F / -4°C 80% 30.09 in
(1019 mb)
NNW 9.2 mph
(NNW 15 kph)
- 10SM
21:54
Overcast
32°F / 0°C 25°F / -4°C 75% 30.09 in
(1019 mb)
N 8.1 mph
(N 13 kph)
- 10SM
20:54
Overcast
34°F / 1°C 27°F / -3°C 75% 30.06 in
(1018 mb)
N 10.4 mph
(N 17 kph)
- 10SM
20:49
Overcast
34°F / 1°C 27°F / -3°C 75% 30.06 in
(1018 mb)
N 10.4 mph
(N 17 kph)
- 10SM
19:54
Mostly Cloudy
32°F / 0°C 27°F / -3°C 80% 30.04 in
(1017 mb)
NNW 15 mph
(NNW 24 kph)
- 10SM
19:51
Mostly Cloudy
32°F / 0°C 27°F / -3°C 80% 30.04 in
(1017 mb)
N 17.3 mph
(N 28 kph)
- 10SM
19:47
Partly Cloudy
32°F / 0°C 27°F / -3°C 80% 30.04 in
(1017 mb)
N 16.1 mph
(N 26 kph)
- 10SM
18:54
Overcast
34°F / 1°C 27°F / -3°C 75% 30.01 in
(1016 mb)
NNW 12.7 mph
(NNW 20 kph)
- 10SM
18:20
Mostly Cloudy
34°F / 1°C 27°F / -3°C 75% 30.01 in
(1016 mb)
NNW 16.1 mph
(NNW 26 kph)
- 10SM
17:54
Partly Cloudy
34°F / 1°C 27°F / -3°C 75% 29.98 in
(1015 mb)
N 15 mph
(N 24 kph)
- 10SM
16:54
Partly Cloudy
34°F / 1°C 27°F / -3°C 75% 29.95 in
(1014 mb)
NNW 16.1 mph
(NNW 26 kph)
- 10SM
16:21
Overcast
36°F / 2°C 27°F / -3°C 70% 29.95 in
(1014 mb)
N 10.4 mph
(N 17 kph)
- 10SM
16:05
Overcast
36°F / 2°C 27°F / -3°C 70% 29.92 in
(1013 mb)
N 10.4 mph
(N 17 kph)
- 10SM
15:54
Overcast
36°F / 2°C 27°F / -3°C 70% 29.92 in
(1013 mb)
N 13.8 mph
(N 22 kph)
- 10SM
14:54
Mostly Cloudy
37°F / 3°C 27°F / -3°C 65% 29.89 in
(1012 mb)
N 16.1 mph
(N 26 kph)
- 10SM
14:47
Mostly Cloudy
37°F / 3°C 27°F / -3°C 65% 29.89 in
(1012 mb)
NNW 20.7 mph
(NNW 33 kph)
- 10SM
14:26
Mostly Cloudy
39°F / 4°C 28°F / -2°C 65% 29.86 in
(1011 mb)
NNW 19.6 mph
(NNW 32 kph)
- 10SM
13:54
Overcast
39°F / 4°C 28°F / -2°C 65% 29.83 in
(1010 mb)
N 15 mph
(N 24 kph)
- 10SM
12:54
Overcast
39°F / 4°C 28°F / -2°C 65% 29.83 in
(1010 mb)
N 11.5 mph
(N 19 kph)
- 10SM
12:41
Mostly Cloudy
37°F / 3°C 28°F / -2°C 70% 29.86 in
(1011 mb)
NNW 10.4 mph
(NNW 17 kph)
- 10SM
12:13
Partly Cloudy
39°F / 4°C 28°F / -2°C 65% 29.83 in
(1010 mb)
N 10.4 mph
(N 17 kph)
- 10SM
12:03
Mostly Cloudy
37°F / 3°C 28°F / -2°C 70% 29.83 in
(1010 mb)
Variable 5.8 mph
(Variable 9 kph)
- 10SM
11:54
Mostly Cloudy
37°F / 3°C 28°F / -2°C 70% 29.83 in
(1010 mb)
Calm - 10SM
10:54
Overcast
34°F / 1°C 28°F / -2°C 81% 29.83 in
(1010 mb)
NW 3.5 mph
(NW 6 kph)
- 10SM
09:54
Overcast
32°F / 0°C 27°F / -3°C 80% 29.83 in
(1010 mb)
NNW 10.4 mph
(NNW 17 kph)
- 10SM
09:09
Overcast
30°F / -1°C 27°F / -3°C 86% 29.8 in
(1009 mb)
NNW 12.7 mph
(NNW 20 kph)
- 10SM
08:54
Overcast
32°F / 0°C 27°F / -3°C 80% 29.8 in
(1009 mb)
N 11.5 mph
(N 19 kph)
- 10SM
08:25
Mostly Cloudy
30°F / -1°C 27°F / -3°C 86% 29.77 in
(1008 mb)
NNW 13.8 mph
(NNW 22 kph)
- 10SM
07:54
Partly Cloudy
30°F / -1°C 25°F / -4°C 80% 29.74 in
(1007 mb)
N 5.8 mph
(N 9 kph)
- 10SM
06:54
Partly Cloudy
30°F / -1°C 27°F / -3°C 86% 29.71 in
(1006 mb)
N 6.9 mph
(N 11 kph)
- 10SM
06:47
Partly Cloudy
28°F / -2°C 27°F / -3°C 93% 29.71 in
(1006 mb)
N 6.9 mph
(N 11 kph)
- 10SM
06:13
Overcast
30°F / -1°C 27°F / -3°C 86% 29.68 in
(1005 mb)
N 6.9 mph
(N 11 kph)
- 10SM
05:54
Overcast
30°F / -1°C 27°F / -3°C 86% 29.68 in
(1005 mb)
NNE 6.9 mph
(NNE 11 kph)
0.00 in
(0.00 mm)
10SM
05:47
Overcast
30°F / -1°C 27°F / -3°C 86% 29.68 in
(1005 mb)
N 5.8 mph
(N 9 kph)
0.00 in
(0.00 mm)
10SM
05:29
Overcast
30°F / -1°C 27°F / -3°C 86% 29.68 in
(1005 mb)
N 6.9 mph
(N 11 kph)
0.00 in
(0.00 mm)
10SM
04:54
Overcast
Light Snow
30°F / -1°C 28°F / -2°C 93% 29.68 in
(1005 mb)
N 8.1 mph
(N 13 kph)
0.01 in
(0.25 mm)
5SM
03:54
Overcast
Light Snow
30°F / -1°C 28°F / -2°C 93% 29.68 in
(1005 mb)
N 6.9 mph
(N 11 kph)
0.00 in
(0.00 mm)
3SM
01:27
Overcast
Light Snow
30°F / -1°C 27°F / -3°C 86% 29.71 in
(1006 mb)
Calm 0.03 in
(0.76 mm)
2SM
01:16
Overcast
Light Snow
30°F / -1°C 27°F / -3°C 86% 29.71 in
(1006 mb)
N 4.6 mph
(N 7 kph)
0.02 in
(0.51 mm)
1 3/4SM
01:08
Overcast
Light Snow
30°F / -1°C 27°F / -3°C 86% 29.71 in
(1006 mb)
NNE 4.6 mph
(NNE 7 kph)
0.02 in
(0.51 mm)
1 1/4SM
00:54
Obscured
Light Snow
30°F / -1°C 28°F / -2°C 93% 29.71 in
(1006 mb)
N 6.9 mph
(N 11 kph)
0.11 in
(2.79 mm)
3/4SM
00:16
Obscured
Light Snow
30°F / -1°C 28°F / -2°C 93% 29.71 in
(1006 mb)
SSW 3.5 mph
(SSW 6 kph)
0.03 in
(0.76 mm)
3/4SM
00:09
Overcast
Light Snow
30°F / -1°C 28°F / -2°C 93% 29.71 in
(1006 mb)
SSW 3.5 mph
(SSW 6 kph)
0.02 in
(0.51 mm)
3/4SM
00:01
Overcast
Light Snow
30°F / -1°C 28°F / -2°C 93% 29.71 in
(1006 mb)
SSW 4.6 mph
(SSW 7 kph)
0.00 in
(0.00 mm)
1 1/2SM
Time Weather Temperature Dewpoint Humidity Pressure Winds Precip Visibility


Weather for websites

WeatherForYou.com, LLC is not responsible for any damages or problems caused by this service. Current weather conditions are obtained from the closest station including government and personal stations which may have varying degrees of accuracy. Weather forecasts are derived from the NOAA NDFD. Like all things, this site belongs to Jesus Christ... He just trusts me to maintain it. If you have any questions or comments email webmaster@weatherforyou.com

Copyright © 2015, WeatherForYou.com LLC. All rights reserved.